Theta_e
308 319 321 322 320 322 324 323 323 324 321 319 317 323 324 327 330 329 330 332 333 332 336 336 336 338 337 335 331 329 333 336 336 336 336 335 335 334 333 331 328 327 325 326 326 326 326 326 325
315 321 321 318 317 317 309 320 325 320 316 314 315 324 325 329 336 329 331 334 334 333 336 336 336 337 336 334 330 329 333 335 335 336 335 334 333 331 329 328 327 326 326 326 326 325 325 324 323
317 319 319 322 318 315 312 318 314 312 311 314 318 320 332 337 330 329 329 333 335 335 336 336 336 336 336 334 330 331 332 334 334 335 334 332 331 329 328 327 326 326 326 326 325 325 324 322 317
316 316 313 322 322 321 321 311 310 311 312 313 313 322 332 321 326 335 333 332 335 335 336 336 336 335 335 334 330 331 330 332 333 334 333 331 330 328 326 325 325 325 326 325 325 324 323 318 314
313 311 316 319 320 320 315 310 307 310 312 313 310 315 334 319 314 325 336 335 335 335 335 336 336 334 334 333 330 330 332 331 332 333 332 331 328 327 325 325 325 325 324 325 324 323 322 316 315
310 307 309 313 314 313 309 308 308 309 309 310 311 309 330 312 311 312 335 336 335 335 335 335 335 334 334 332 331 327 332 332 332 331 330 329 327 325 325 324 325 324 324 325 324 323 317 314 314
309 307 309 310 311 312 310 307 310 309 308 311 308 319 321 312 310 310 334 336 336 335 333 334 335 334 331 331 330 328 329 332 331 331 331 329 326 325 324 325 324 324 325 324 323 322 316 314 314
305 306 311 308 309 311 310 309 309 310 310 306 309 318 313 309 311 313 323 333 336 335 334 332 334 334 332 330 331 330 328 330 332 332 331 328 325 324 324 324 323 323 324 324 323 317 315 314 314
306 309 309 310 312 310 309 310 309 308 309 308 308 309 310 310 310 312 314 315 320 333 335 332 332 333 332 331 330 328 328 329 331 333 332 329 324 322 323 322 322 322 323 322 323 317 314 314 314
307 306 311 311 312 313 311 310 309 310 308 309 309 308 309 309 308 309 311 313 314 316 323 334 331 332 331 331 332 329 329 329 332 333 331 328 324 323 324 322 322 322 323 322 320 318 316 315 314
309 308 312 311 313 311 312 311 308 310 311 309 308 307 307 307 307 307 308 311 313 312 316 324 332 332 329 328 329 329 331 329 332 333 331 327 324 323 323 322 321 321 322 322 319 317 317 315 315
311 312 312 312 311 312 312 310 310 310 310 307 305 305 305 305 305 306 307 309 310 310 312 314 324 331 332 331 329 327 330 331 333 333 329 326 322 323 322 322 321 321 321 320 317 316 315 314 316
312 312 312 311 311 311 310 309 310 309 306 305 305 304 304 304 305 305 306 308 309 310 310 311 314 323 331 332 331 330 331 331 332 332 328 324 322 322 321 321 321 321 319 318 317 317 316 315 321
312 312 311 311 311 311 311 311 311 309 305 305 304 304 304 304 304 304 305 306 308 309 309 310 312 314 325 331 331 330 331 329 330 331 327 323 322 321 320 320 320 320 320 319 319 319 318 319 322
312 312 310 310 311 312 309 312 312 307 305 305 304 304 305 304 304 305 305 306 308 308 309 310 311 313 318 327 331 331 330 326 328 330 326 323 322 321 320 318 321 321 322 321 321 321 321 322 323
309 308 311 310 311 311 309 310 310 305 304 305 305 306 306 304 306 306 308 308 309 308 308 309 310 313 315 322 329 331 331 329 329 329 327 324 322 321 320 319 321 322 322 322 322 322 322 323 321
307 310 312 310 311 312 311 312 309 306 304 305 307 306 306 306 306 307 307 308 308 308 308 308 310 312 315 320 327 330 330 329 328 328 328 325 323 320 318 320 323 323 323 322 322 321 322 322 320
308 311 311 311 310 312 313 312 308 305 305 305 307 307 307 307 306 307 306 306 307 307 308 308 309 311 314 320 326 329 329 329 328 329 328 326 324 321 319 321 323 323 323 322 321 321 321 322 323
310 312 310 308 309 312 313 313 309 305 305 307 306 305 305 306 306 305 305 304 304 305 305 307 308 308 312 320 327 328 328 329 328 327 327 327 325 322 321 322 323 323 322 321 321 321 321 322 322
311 307 307 307 308 314 312 310 309 306 306 307 307 306 306 305 305 304 303 303 303 303 303 305 307 308 311 316 326 328 328 327 328 327 327 326 326 324 323 323 323 322 322 321 322 321 321 322 323
307 305 301 309 308 313 308 305 304 305 306 306 306 306 305 304 304 303 303 302 302 302 302 303 305 307 310 315 321 327 327 327 328 326 326 326 325 325 324 324 323 323 322 322 322 322 322 323 324
308 306 308 310 310 308 305 306 297 302 305 305 304 304 303 304 302 302 301 301 301 301 301 302 304 307 310 314 318 323 325 326 326 325 325 325 324 324 324 324 323 323 323 323 323 323 324 324 324
305 309 309 308 310 315 304 300 300 302 303 304 303 302 301 301 301 301 300 300 300 300 301 301 303 307 308 313 320 324 324 324 325 325 324 324 324 324 324 324 323 323 323 324 323 322 321 318 316
306 308 306 309 310 305 299 301 301 299 302 303 303 300 298 299 299 299 299 298 298 300 301 302 302 305 307 308 312 315 319 320 316 316 314 313 314 315 318 320 318 318 317 316 313 314 314 314 314
307 305 301 299 301 308 305 305 304 301 304 304 303 298 297 296 297 298 298 298 297 297 299 300 302 303 305 306 307 309 309 310 310 310 310 311 311 311 312 313 313 313 313 313 313 313 313 312 311
308 306 302 301 306 306 307 308 306 303 303 304 299 297 296 295 295 296 297 297 296 297 298 299 300 302 304 305 306 306 307 308 308 308 309 309 309 310 310 311 311 312 312 311 311 311 311 311 313
308 307 306 308 301 307 306 306 304 303 301 299 297 297 296 295 294 294 295 295 295 296 297 298 299 299 302 305 305 305 306 306 307 307 307 308 308 309 308 308 308 308 309 311 312 312 312 312 312
307 305 307 303 300 303 303 308 307 306 304 300 297 296 296 295 294 293 294 294 295 295 296 299 299 299 299 301 303 305 306 306 306 307 308 308 308 308 309 309 309 309 310 310 311 310 309 309 308
308 309 307 305 307 307 308 304 302 303 303 300 296 295 295 296 294 293 293 294 294 295 296 297 298 299 299 299 300 300 300 301 302 302 302 303 304 305 305 306 307 307 307 307 307 306 305 304 303
305 306 306 305 303 306 308 306 303 301 301 298 295 295 295 295 294 292 293 293 293 294 295 295 296 298 298 298 298 298 298 298 298 298 298 299 299 299 299 300 300 300 300 300 300 300 299 299 298
Wind_Speed
5 3 3 5 4 4 3 5 2 4 7 4 4 3 5 1 1 3 10 15 0 20 29 27 25 23 22 20 19 18 18 19 19 18 18 17 17 15 14 13 13 12 11 10 10 10 11 11 10
4 2 4 2 4 2 5 5 5 3 7 10 6 1 2 1 3 5 4 11 5 22 29 28 26 25 23 21 19 19 20 19 18 18 16 15 14 14 13 13 13 12 12 11 10 9 9 9 9
3 3 4 4 4 5 3 2 7 7 8 5 6 3 4 7 11 9 13 11 12 23 28 26 25 25 24 22 20 18 21 20 18 17 16 15 14 13 13 13 13 12 12 11 10 9 8 8 8
1 5 4 4 5 4 2 5 5 9 6 9 6 2 4 20 13 18 16 9 12 22 27 25 24 25 23 22 20 19 21 21 18 18 17 16 15 15 14 13 13 12 11 10 9 8 7 7 7
5 3 4 2 3 2 1 3 5 6 5 6 9 7 4 9 28 27 11 4 12 20 25 26 24 23 23 22 22 21 21 22 22 19 17 17 17 17 15 13 13 12 11 10 8 7 6 6 5
4 3 3 1 2 1 3 6 4 5 4 6 6 6 2 10 39 35 13 7 10 18 23 24 24 24 22 22 22 21 22 22 21 20 19 17 18 18 15 14 13 12 11 9 7 6 6 5 4
5 3 1 1 3 1 4 9 3 5 6 5 6 4 5 19 38 29 15 8 9 14 19 23 24 22 23 23 23 21 21 22 22 22 21 16 17 18 17 15 14 11 11 9 8 6 5 5 5
4 4 2 2 1 3 4 8 4 5 4 6 8 6 6 22 28 23 16 12 7 11 17 23 25 25 24 24 24 23 22 21 22 21 21 18 16 19 18 16 14 12 11 9 8 7 6 5 5
2 4 1 1 3 5 5 6 5 5 4 4 6 5 10 22 27 28 27 24 20 13 15 21 26 28 26 26 25 24 23 22 22 25 23 19 18 18 18 16 14 13 12 11 9 8 7 6 7
4 3 2 0 1 2 4 3 6 6 8 6 8 13 20 25 25 21 22 21 24 24 18 21 26 30 31 28 26 26 26 24 24 27 27 22 19 21 20 19 16 14 12 13 11 9 8 8 8
2 3 1 2 2 2 4 5 4 5 4 2 9 14 17 21 21 21 20 20 22 24 21 17 21 30 31 32 32 30 28 27 27 29 26 22 21 20 21 20 19 16 15 15 13 12 11 10 10
5 2 1 2 3 3 4 4 4 4 2 7 8 9 10 9 15 19 21 22 25 28 23 21 17 25 34 36 33 34 33 31 31 30 26 25 23 24 24 22 20 19 18 16 14 12 11 11 10
3 1 2 3 1 2 3 5 3 4 5 7 9 11 12 12 17 22 23 23 26 25 29 26 22 21 27 34 32 31 34 32 34 33 27 26 25 26 24 23 21 20 19 17 15 14 12 12 10
1 2 2 3 5 2 4 3 2 3 8 9 10 11 11 13 16 19 21 26 25 27 32 29 26 22 22 30 31 32 34 38 33 33 31 28 28 27 25 23 22 21 19 17 15 13 12 12 11
2 2 2 3 5 2 1 1 4 6 7 7 8 10 14 16 20 18 21 22 25 28 32 31 28 25 20 24 30 34 35 35 38 39 31 29 29 28 26 25 23 21 19 17 15 13 13 12 10
4 4 3 2 7 3 3 3 2 7 8 9 9 15 13 14 21 24 25 26 25 24 25 32 28 27 25 24 27 32 34 39 39 36 31 32 31 30 27 26 24 21 20 18 17 16 14 14 13
6 2 2 7 2 4 4 2 3 5 6 8 11 13 12 14 19 23 27 28 26 24 25 25 25 27 26 24 28 29 31 37 39 40 41 37 33 31 29 27 24 21 21 20 18 17 16 15 15
1 2 3 3 2 2 3 4 2 6 6 9 11 12 12 14 16 24 27 29 29 29 24 24 24 24 25 25 25 27 27 31 36 39 39 36 36 34 32 27 22 20 21 20 19 18 17 18 19
4 2 2 4 3 4 2 5 5 7 6 11 13 14 14 14 19 26 26 25 27 29 29 27 26 25 22 20 20 24 22 25 30 37 37 38 39 38 32 27 23 22 23 21 19 19 18 19 19
2 1 3 4 2 0 5 6 2 4 3 7 10 11 13 15 16 22 27 29 28 28 30 28 27 25 21 15 19 22 19 22 29 33 37 33 35 35 31 29 25 23 23 21 20 18 18 18 17
2 3 2 3 5 2 6 4 3 3 3 6 7 8 10 13 15 16 24 27 30 32 33 31 28 22 16 16 12 16 18 16 24 28 27 33 33 34 33 29 25 22 23 23 21 20 19 20 16
3 4 3 2 3 1 4 4 4 4 4 5 6 8 9 11 13 15 21 26 29 33 34 33 29 19 9 9 9 16 13 11 14 12 18 24 30 32 24 22 21 23 19 21 20 19 17 15 13
4 3 2 1 2 1 3 3 6 4 4 6 7 7 8 7 9 13 20 23 26 32 33 32 29 21 24 11 6 12 18 11 10 11 9 18 19 21 21 18 19 18 16 15 13 11 5 7 12
1 0 3 2 2 2 4 4 5 2 4 4 4 7 7 9 10 13 20 22 25 31 35 36 34 31 32 35 27 18 15 20 25 23 24 28 26 23 18 16 16 15 18 19 16 19 20 19 19
3 4 3 5 3 4 3 2 8 5 5 4 3 6 7 7 8 10 14 20 23 26 32 31 32 36 33 38 36 30 32 37 35 30 29 31 33 33 36 38 36 30 28 27 24 26 20 20 17
2 3 4 4 2 5 1 4 5 5 4 4 2 2 5 7 6 7 13 18 19 23 26 29 27 29 35 37 39 37 33 36 43 28 38 36 33 37 38 36 34 28 24 24 23 21 19 14 10
2 2 2 4 2 2 3 5 4 4 4 3 3 0 4 6 7 7 13 16 18 20 20 23 25 23 32 37 38 39 41 39 38 34 37 37 38 36 39 38 35 27 20 16 11 11 9 7 6
1 4 3 3 1 4 4 5 4 6 8 6 5 4 3 3 5 6 10 14 15 16 18 20 21 25 27 32 36 36 34 34 33 34 35 32 30 28 25 21 17 16 14 14 12 12 11 10 9
2 1 2 2 3 3 3 5 6 7 9 9 8 6 5 3 3 5 8 12 14 17 21 22 22 24 26 28 27 27 28 28 29 29 28 26 25 25 25 21 20 19 17 16 14 13 12 11 11
1 5 4 3 3 3 0 6 1 4 8 8 8 7 5 4 3 3 5 7 13 17 20 21 21 22 21 23 25 25 25 26 26 25 25 24 25 24 23 21 20 19 18 17 16 15 14 14 14
Wind_Direction
322 344 9 35 56 68 261 261 294 348 346 255 265 220 260 353 219 221 326 187 289 179 176 179 182 181 175 174 171 165 161 159 158 158 154 152 148 144 144 145 143 139 142 146 141 135 132 134 130
9 95 58 83 93 73 271 320 348 336 278 300 290 189 289 333 20 334 3 185 197 179 177 179 182 181 180 181 178 170 168 163 157 155 154 153 153 151 150 150 149 151 150 152 146 143 141 135 136
110 70 87 104 120 177 212 357 280 287 292 328 339 33 22 345 341 332 336 225 179 177 179 183 184 183 184 184 180 176 172 170 171 164 161 159 159 156 155 156 155 160 162 160 158 156 148 143 146
145 30 36 106 200 240 210 312 307 324 359 28 330 29 58 43 344 336 327 208 189 183 183 184 188 188 189 187 186 184 180 182 180 173 168 165 164 163 161 163 166 166 166 167 168 163 156 155 156
38 50 73 94 255 257 293 357 322 352 330 342 341 346 65 7 5 7 356 227 201 192 190 187 190 195 193 194 194 190 192 190 188 186 176 172 170 170 171 171 173 174 175 174 178 174 167 166 167
40 87 62 262 279 301 14 344 316 14 313 315 23 340 122 3 4 355 341 289 226 206 199 197 193 198 200 201 201 198 201 199 194 189 186 180 175 173 176 174 177 182 180 181 186 192 181 175 182
101 75 118 146 290 5 344 328 28 325 303 0 320 353 285 1 346 352 344 300 250 224 212 206 203 204 208 205 207 207 211 207 203 195 192 189 181 178 176 182 181 188 190 190 196 203 207 193 194
100 91 98 353 330 338 331 330 345 13 303 302 340 15 341 333 348 360 13 341 270 241 224 216 211 208 217 210 210 213 216 215 209 203 199 191 188 181 185 185 195 193 202 202 210 211 221 227 219
114 61 122 357 10 309 332 357 329 317 319 20 15 37 321 343 2 7 7 8 356 304 244 226 221 216 216 217 216 216 218 220 217 206 204 196 190 188 187 190 196 203 213 219 222 231 227 234 239
72 88 141 110 148 296 308 4 323 359 12 342 344 341 346 353 4 9 357 348 350 346 323 246 233 227 221 221 219 221 217 218 214 206 197 197 196 193 195 197 201 206 213 228 233 243 252 249 251
67 119 210 233 329 7 324 11 18 2 14 335 320 329 342 348 354 354 347 338 334 333 332 306 267 242 232 230 223 221 219 217 213 210 202 199 199 200 201 204 204 209 214 231 233 240 248 257 264
100 70 58 326 331 12 346 300 107 69 293 304 310 319 333 347 345 339 332 328 330 329 323 318 299 274 248 239 231 223 218 217 212 209 205 204 203 202 209 213 213 216 217 229 234 242 251 258 260
70 43 324 331 301 95 290 343 194 47 332 330 331 354 354 344 334 331 326 323 326 323 320 313 306 284 266 245 242 222 219 219 214 207 209 209 209 208 213 215 218 222 224 227 234 244 254 253 256
89 21 287 328 345 108 34 350 142 359 345 347 359 351 345 339 328 325 327 324 322 319 316 312 305 298 274 248 245 220 217 220 218 215 209 212 215 216 215 216 220 224 227 231 235 246 251 251 258
89 93 335 347 354 21 331 333 45 338 329 334 340 339 345 336 335 335 323 315 317 316 315 310 303 296 284 269 250 225 218 223 223 213 212 213 218 221 220 219 222 225 229 232 238 241 241 247 259
51 55 14 331 3 347 41 301 23 341 350 339 346 349 340 336 332 333 337 334 325 319 311 311 303 292 283 262 255 228 217 218 221 224 218 216 217 223 223 222 226 231 234 238 242 244 245 252 256
17 96 340 323 62 329 34 308 358 314 334 347 356 350 340 331 335 338 341 341 332 325 320 311 306 297 286 275 248 236 213 211 214 215 210 217 216 220 222 222 228 235 231 234 240 243 244 250 247
226 53 306 268 289 325 312 261 309 348 1 356 1 346 345 345 338 344 343 348 337 335 328 323 312 302 290 275 246 233 219 206 209 211 218 218 218 219 220 220 227 223 226 233 237 240 244 248 250
129 168 239 265 287 348 293 294 309 343 12 13 5 360 350 346 344 350 341 346 343 341 339 332 324 315 295 270 232 228 222 207 206 206 214 218 220 219 219 219 220 225 229 231 235 242 247 252 257
134 102 283 286 277 230 323 299 294 330 360 28 13 358 352 346 346 347 347 349 347 343 341 338 328 326 308 286 237 228 227 223 221 211 214 223 222 225 218 218 216 223 228 231 235 239 246 254 265
183 167 230 243 333 7 332 310 323 285 360 18 16 14 356 354 343 345 350 346 349 351 342 339 335 334 313 277 248 228 230 233 202 204 206 215 226 227 215 220 221 223 231 234 237 240 243 251 260
314 196 168 294 29 287 50 284 299 313 318 347 359 1 336 354 352 342 344 347 352 347 350 344 344 350 354 286 254 221 190 194 203 202 199 214 216 215 209 219 235 238 232 244 241 239 245 257 250
236 162 211 265 212 53 301 76 265 341 328 323 329 354 320 333 335 337 339 339 347 355 355 351 352 10 37 56 58 220 201 179 125 138 181 175 169 189 203 216 229 232 225 230 205 171 147 74 68
344 89 39 44 67 9 237 123 281 221 216 295 322 337 336 332 346 344 346 347 348 358 7 8 1 19 35 53 66 75 107 123 102 99 92 86 92 99 116 137 116 120 122 117 94 93 83 82 76
77 59 334 350 6 232 157 61 247 220 213 204 309 328 330 336 352 343 351 347 349 350 3 3 11 24 31 49 56 63 78 85 81 90 86 84 79 74 80 81 87 86 86 86 88 79 77 74 71
87 138 151 248 277 287 111 228 255 201 160 168 134 302 333 350 345 337 348 344 348 359 6 11 7 31 42 48 52 55 66 79 79 79 87 79 82 81 83 83 83 81 80 84 81 86 85 83 77
159 138 163 107 34 355 245 281 287 158 211 185 187 305 329 333 335 338 350 356 352 3 14 26 19 25 51 60 63 63 69 71 81 82 86 89 91 94 89 86 85 85 87 77 82 74 73 69 55
156 152 68 7 21 288 283 273 239 214 220 215 225 213 258 309 333 341 352 1 15 22 27 42 43 44 51 62 64 67 72 77 84 88 87 87 91 95 95 98 101 95 89 75 72 73 69 65 58
127 185 95 147 162 217 301 262 215 208 195 195 208 203 202 235 307 328 353 11 22 37 42 43 49 53 58 66 71 75 78 78 77 80 84 87 89 88 84 83 82 77 76 73 70 68 62 58 52
212 206 157 139 229 245 145 273 316 224 193 171 190 196 189 191 244 310 353 11 27 37 46 50 51 58 65 72 77 79 79 81 81 81 83 83 81 80 82 83 82 79 75 73 70 64 57 51 43